Back to catalog

STARLINK-36985

AliveCommunicationsVLEO
NORAD 68014·PAYLOAD·🇺🇸 United States

Launched Feb 27, 2026 from Vandenberg Space Force Base

Loading…

Next Passes (next 24 hours)

TLE

FreshSource: CelesTrak SupGP

Epoch: Sep 14, 2026, 15:43 UTC

1 68014C 26039AE  26257.65534722 -.00024204  00000+0 -87508-3 0  2576
2 68014  43.0030  61.4583 0001187 264.2492 197.1819 15.27649786    16

Track STARLINK-36985 in real time with AllMySat

Download on the App Store